Flag for India Weather past 2 weeks in Robertsganj, Uttar Pradesh, India

Now
86 °F

Partly cloudy.


Feels Like: 95 °F
Forecast: 76 / 90 °F
Wind: No wind

Location: Varanasi / Babatpur

Current Time: Jul 24, 2014 at 10:29:22 PM

Latest Report: Jul 24, 2014 at 9:00 PM


Visibility: 3 mi

Pressure: 29.59 "Hg

Humidity: 70%

Dew point: 75 °F

Location of RobertsganjLocation

Historic Weather in Robertsganj — Graph

°F

Robertsganj temperature yesterday

Maximum temperature yesterday: 86 °F (at 10:00 AM)
Minimum temperature yesterday: 79 °F (at 5:00 AM)
Average temperature yesterday: 83 °F

Past Weeks' High & Low Weather Summary

 TemperatureHumidityPressure
High102 °F (Jul 12, 4:00 AM)100% (Jul 17, 6:00 PM)29.59 "Hg (Jul 17, 6:00 PM)
Low77 °F (Jul 24, 4:00 AM)48% (Jul 12, 4:00 AM)29.33 "Hg (Jul 19, 4:00 PM)
Average87 °F78%29.45 "Hg
* Reported Jul 9 10:00 PM — Jul 24 9:00 PM, Robertsganj, Weather by CustomWeather, © 2014

Note: Actual official high and low records may vary slightly from our data, if they occured in-between our weather recording intervals... More about our weather records

Advertising

Robertsganj weather history for previous 24 hours

 ConditionsComfort  
Time TempWeatherWind HumidityBarometerVisibility
9:00 PM
Jul 24
86 °FPartly cloudy.No wind70%29.59 "Hg3 mi
8:00 PM86 °FPartly cloudy.No wind70%29.56 "Hg3 mi
7:00 PM86 °FBroken clouds.No wind70%29.53 "Hg3 mi
5:00 PM88 °FMore clouds than sun.No wind62%29.50 "Hg3 mi
4:00 PM90 °FBroken clouds.2 mph63%29.53 "Hg4 mi
3:00 PM91 °FScattered clouds.1 mph59%29.53 "Hg4 mi
2:00 PM91 °FScattered clouds.1 mph56%29.53 "Hg4 mi
1:00 PM88 °FScattered clouds.1 mph62%29.56 "Hg4 mi
12:00 PM88 °FScattered clouds.2 mph62%29.56 "Hg4 mi
11:00 AM88 °FScattered clouds.3 mph62%29.56 "Hg3 mi
9:00 AM86 °FScattered clouds.5 mph66%29.59 "Hg3 mi
8:00 AM81 °FHaze.6 mph79%29.56 "Hg3 mi
7:00 AM81 °FScattered clouds.1 mph74%29.56 "Hg3 mi
6:00 AM77 °FBroken clouds.No wind83%29.53 "Hg3 mi
5:00 AM77 °FPartly cloudy.2 mph83%29.53 "Hg3 mi
4:00 AM77 °FPassing clouds.2 mph83%29.50 "Hg3 mi
12:00 AM81 °FHaze.1 mph84%29.53 "Hg3 mi
11:00 PM
Jul 23
82 °FHaze.No wind79%29.56 "Hg3 mi
10:00 PM82 °FHaze.2 mph79%29.53 "Hg3 mi
Weather by CustomWeather, © 2014

See weather overviewHow to use our weather pages